This is the latest recevied weather packets stored in our database for station/object EA1EXV-11. If no packets are shown the sender has not sent any weather packets the latest 10 day(s).
| Time | Temp. | Humidity | Pressure | Rain* | Wind** | Luminosity | Snow |
|---|---|---|---|---|---|---|---|
| 1778104230 | 11.11° C | 77% | 1015.3 hPa | - | - | - | - |
| 1778103329 | 11.11° C | 76% | 1015.3 hPa | - | - | - | - |
| 1778102429 | 11.11° C | 75% | 1015.4 hPa | - | - | - | - |
| 1778101529 | 11.11° C | 75% | 1015.5 hPa | - | - | - | - |
| 1778100629 | 11.11° C | 74% | 1015.5 hPa | - | - | - | - |
| 1778099729 | 10.56° C | 73% | 1015.4 hPa | - | - | - | - |
| 1778098829 | 11.11° C | 72% | 1015.5 hPa | - | - | - | - |
| 1778097929 | 11.11° C | 71% | 1015.4 hPa | - | - | - | - |
| 1778097029 | 11.67° C | 70% | 1015.4 hPa | - | - | - | - |
| 1778096129 | 12.78° C | 68% | 1015.5 hPa | - | - | - | - |
| 1778095228 | 13.89° C | 67% | 1015.3 hPa | - | - | - | - |
| 1778094328 | 15.56° C | 65% | 1015.3 hPa | - | - | - | - |
| 1778093428 | 15.56° C | 66% | 1015.1 hPa | - | - | - | - |
| 1778092528 | 16.11° C | 66% | 1015.2 hPa | - | - | - | - |
| 1778091628 | 16.11° C | 66% | 1015.4 hPa | - | - | - | - |
| 1778090728 | 15° C | 66% | 1015.5 hPa | - | - | - | - |
| 1778089828 | 15° C | 66% | 1015.6 hPa | - | - | - | - |
| 1778088928 | 15.56° C | 65% | 1015.7 hPa | - | - | - | - |
| 1778088028 | 15.56° C | 64% | 1015.7 hPa | - | - | - | - |
| 1778087127 | 15.56° C | 64% | 1015.8 hPa | - | - | - | - |
| 1778086227 | 15.56° C | 64% | 1015.9 hPa | - | - | - | - |
| 1778085327 | 15.56° C | 63% | 1015.8 hPa | - | - | - | - |
| 1778084427 | 15.56° C | 62% | 1015.9 hPa | - | - | - | - |
| 1778083527 | 16.11° C | 61% | 1016 hPa | - | - | - | - |
| 1778082627 | 16.67° C | 60% | 1016 hPa | - | - | - | - |
* Rain since midnight (hover to see other rain measurements)
** Current wind speed in m/s (hover to see current wind gust speed)